Main page
Satellite images Climate Cyclones Lightning AirportsFAQ Languages Contact Newsletter About
Weather : Europe Africa North America South America Asia Australia-Oceania Others

bangkok-th, Bangkok-Suvarnabhumi, Suvarnabhumi Airport

48455

latitude: , longitude: Thailand, elevation: 13-40-52N m


METAR: VTBS 212000Z 33002KT 9000 FEW020 27/24 Q1010 NOSIG